KINEIS-5E

Last updated on Fri Dec 12 2025 00:02:43 GMT+0000 (Coordinated Universal Time)

1 62083U 24219C 25344.65336429 .00001446 00000+0 23624-3 0 9997 2 62083 97.9860 142.8550 0000883 112.9640 247.1661 14.72366111 56029
UTC large
Height (km)
Speed (km/s)
/
Latitude / Longitude
Inclination (degrees)
Orbital Period (minutes)
Azimuth
Elevation
Range (km)
Doppler Factor

Next 0 passes for location: London (51.5072 / 0.1276)

Sorry there are no passes over London.